When you browse on this site, cookies collect data to enhance your experience and personalize the content and advertising you see.
Visit our Privacy Policy to learn more. By continuing to use the site, you agree to this use of cookies and data.

Stündliche Wetter Tarin Kowt

Heute, 4 Juli, Samstag

Zeit Temperatur Niederschläge Wind Luftdruck Luftfeuchtigkeit
00:00 +25°C° 0 mm 2 m/S 613 mmHg 15%
01:00 +25°C° 0 mm 2 m/S 613 mmHg 16%
02:00 +24°C° 0 mm 2 m/S 613 mmHg 17%
03:00 +23°C° 0 mm 2 m/S 612 mmHg 17%
04:00 +21°C° 0 mm 2 m/S 612 mmHg 19%
05:00 +24°C° 0 mm 2 m/S 613 mmHg 17%
06:00 +26°C° 0 mm 2 m/S 614 mmHg 15%
07:00 +28°C° 0 mm 3 m/S 615 mmHg 12%
08:00 +30°C° 0 mm 3 m/S 615 mmHg 10%
09:00 +31°C° 0 mm 3 m/S 615 mmHg 9%
10:00 +34°C° 0 mm 4 m/S 616 mmHg 7%
11:00 +36°C° 0 mm 5 m/S 615 mmHg 6%
12:00 +38°C° 0 mm 6 m/S 615 mmHg 5%
13:00 +39°C° 0 mm 7 m/S 615 mmHg 5%
14:00 +39°C° 0 mm 6 m/S 615 mmHg 5%
15:00 +39°C° 0 mm 6 m/S 614 mmHg 5%
16:00 +39°C° 0 mm 5 m/S 613 mmHg 5%
17:00 +36°C° 0 mm 5 m/S 613 mmHg 6%
18:00 +33°C° 0 mm 4 m/S 612 mmHg 7%
19:00 +30°C° 0 mm 3 m/S 612 mmHg 8%
20:00 +28°C° 0 mm 2 m/S 611 mmHg 9%
21:00 +27°C° 0 mm 2 m/S 611 mmHg 9%
22:00 +25°C° 0 mm 2 m/S 611 mmHg 10%
23:00 +24°C° 0 mm 2 m/S 610 mmHg 11%

Morgen, 5 Juli, Sonntag

Zeit Temperatur Niederschläge Wind Luftdruck Luftfeuchtigkeit
00:00 +24°C° 0 mm 2 m/S 610 mmHg 11%
01:00 +23°C° 0 mm 2 m/S 610 mmHg 12%
02:00 +23°C° 0 mm 2 m/S 610 mmHg 13%
03:00 +21°C° 0 mm 2 m/S 610 mmHg 14%
04:00 +20°C° 0 mm 3 m/S 609 mmHg 15%
05:00 +22°C° 0 mm 3 m/S 610 mmHg 15%
06:00 +25°C° 0 mm 3 m/S 611 mmHg 15%
07:00 +26°C° 0 mm 3 m/S 612 mmHg 14%
08:00 +28°C° 0 mm 4 m/S 613 mmHg 13%
09:00 +30°C° 0 mm 4 m/S 613 mmHg 12%
10:00 +33°C° 0 mm 5 m/S 614 mmHg 11%
11:00 +33°C° 0 mm 4 m/S 613 mmHg 10%
12:00 +34°C° 0 mm 3 m/S 613 mmHg 9%
13:00 +35°C° 0 mm 3 m/S 613 mmHg 8%
14:00 +35°C° 0 mm 3 m/S 613 mmHg 8%
15:00 +36°C° 0 mm 3 m/S 612 mmHg 7%
16:00 +36°C° 0 mm 3 m/S 612 mmHg 7%
17:00 +34°C° 0 mm 3 m/S 612 mmHg 7%
18:00 +30°C° 0 mm 3 m/S 611 mmHg 8%
19:00 +28°C° 0 mm 2 m/S 611 mmHg 8%
20:00 +27°C° 0 mm 2 m/S 611 mmHg 9%
21:00 +25°C° 0 mm 2 m/S 611 mmHg 9%
22:00 +24°C° 0 mm 1 m/S 610 mmHg 10%
23:00 +24°C° 0 mm 1 m/S 611 mmHg 10%

übermorgen, 6 Juli, Montag

Zeit Temperatur Niederschläge Wind Luftdruck Luftfeuchtigkeit
00:00 +23°C° 0 mm 2 m/S 611 mmHg 10%
01:00 +23°C° 0 mm 2 m/S 611 mmHg 11%
02:00 +23°C° 0 mm 2 m/S 611 mmHg 17%
03:00 +21°C° 0 mm 2 m/S 610 mmHg 24%
04:00 +20°C° 0 mm 2 m/S 610 mmHg 30%
05:00 +23°C° 0 mm 2 m/S 611 mmHg 28%
06:00 +25°C° 0 mm 3 m/S 612 mmHg 25%
07:00 +27°C° 0 mm 3 m/S 613 mmHg 22%
08:00 +29°C° 0 mm 3 m/S 614 mmHg 20%
09:00 +31°C° 0 mm 3 m/S 614 mmHg 17%
10:00 +34°C° 0 mm 2 m/S 614 mmHg 14%
11:00 +35°C° 0 mm 2 m/S 614 mmHg 12%
12:00 +36°C° 0 mm 2 m/S 614 mmHg 11%
13:00 +37°C° 0 mm 2 m/S 614 mmHg 9%
14:00 +37°C° 0 mm 3 m/S 614 mmHg 9%
15:00 +37°C° 0 mm 4 m/S 613 mmHg 8%
16:00 +37°C° 0 mm 4 m/S 613 mmHg 8%
17:00 +35°C° 0 mm 4 m/S 613 mmHg 9%
18:00 +33°C° 0 mm 4 m/S 612 mmHg 10%
19:00 +30°C° 0 mm 4 m/S 612 mmHg 11%
20:00 +29°C° 0 mm 3 m/S 612 mmHg 12%
21:00 +28°C° 0 mm 3 m/S 612 mmHg 13%
22:00 +27°C° 0 mm 2 m/S 613 mmHg 14%
23:00 +26°C° 0 mm 2 m/S 613 mmHg 14%

7 Juli, Dienstag

Zeit Temperatur Niederschläge Wind Luftdruck Luftfeuchtigkeit
00:00 +25°C° 0 mm 3 m/S 613 mmHg 15%
01:00 +25°C° 0 mm 3 m/S 613 mmHg 16%
02:00 +24°C° 0 mm 2 m/S 612 mmHg 24%
03:00 +21°C° 0 mm 2 m/S 612 mmHg 33%
04:00 +20°C° 0 mm 2 m/S 612 mmHg 42%
05:00 +23°C° 0 mm 2 m/S 613 mmHg 38%
06:00 +25°C° 0 mm 1 m/S 614 mmHg 34%
07:00 +27°C° 0 mm 1 m/S 615 mmHg 30%
08:00 +29°C° 0 mm 1 m/S 615 mmHg 25%
09:00 +31°C° 0 mm 1 m/S 616 mmHg 20%
10:00 +32°C° 0 mm 1 m/S 616 mmHg 15%
11:00 +35°C° 0 mm 2 m/S 616 mmHg 13%
12:00 +36°C° 0 mm 3 m/S 616 mmHg 11%
13:00 +37°C° 0 mm 4 m/S 616 mmHg 9%
14:00 +37°C° 0 mm 4 m/S 616 mmHg 9%
15:00 +37°C° 0 mm 5 m/S 616 mmHg 9%
16:00 +37°C° 0 mm 5 m/S 615 mmHg 9%
17:00 +35°C° 0 mm 5 m/S 615 mmHg 9%
18:00 +33°C° 0 mm 4 m/S 614 mmHg 10%
19:00 +30°C° 0 mm 4 m/S 614 mmHg 10%
20:00 +28°C° 0 mm 3 m/S 613 mmHg 11%
21:00 +26°C° 0 mm 2 m/S 613 mmHg 12%
22:00 +25°C° 0 mm 1 m/S 613 mmHg 13%
23:00 +24°C° 0 mm 1 m/S 613 mmHg 14%

8 Juli, Mittwoch

Zeit Temperatur Niederschläge Wind Luftdruck Luftfeuchtigkeit
00:00 +21°C° 0 mm 0 m/S 612 mmHg 15%
01:00 +21°C° 0 mm 0 m/S 612 mmHg 15%
02:00 +20°C° 0 mm 0 m/S 612 mmHg 16%
03:00 +22°C° 0 mm 1 m/S 612 mmHg 16%
04:00 +21°C° 0 mm 1 m/S 612 mmHg 16%
05:00 +24°C° 0 mm 1 m/S 613 mmHg 14%
06:00 +27°C° 0 mm 1 m/S 614 mmHg 12%
07:00 +29°C° 0 mm 1 m/S 616 mmHg 10%
08:00 +31°C° 0 mm 2 m/S 616 mmHg 9%
09:00 +33°C° 0 mm 3 m/S 616 mmHg 8%
10:00 +35°C° 0 mm 4 m/S 617 mmHg 7%
11:00 +36°C° 0 mm 5 m/S 616 mmHg 7%
12:00 +37°C° 0 mm 5 m/S 616 mmHg 7%
13:00 +39°C° 0 mm 6 m/S 616 mmHg 6%
14:00 +38°C° 0 mm 6 m/S 616 mmHg 7%
15:00 +38°C° 0 mm 7 m/S 616 mmHg 7%
16:00 +38°C° 0 mm 7 m/S 615 mmHg 7%
17:00 +35°C° 0 mm 6 m/S 615 mmHg 8%
18:00 +33°C° 0 mm 5 m/S 614 mmHg 9%
19:00 +30°C° 0 mm 3 m/S 613 mmHg 10%
20:00 +28°C° 0 mm 3 m/S 613 mmHg 11%
21:00 +27°C° 0 mm 2 m/S 613 mmHg 12%
22:00 +25°C° 0 mm 2 m/S 613 mmHg 13%
23:00 +24°C° 0 mm 1 m/S 612 mmHg 15%

9 Juli, Donnerstag

Zeit Temperatur Niederschläge Wind Luftdruck Luftfeuchtigkeit
00:00 +23°C° 0 mm 1 m/S 612 mmHg 16%
01:00 +22°C° 0 mm 1 m/S 611 mmHg 17%
02:00 +22°C° 0 mm 1 m/S 611 mmHg 18%
03:00 +21°C° 0 mm 1 m/S 611 mmHg 19%
04:00 +21°C° 0 mm 1 m/S 610 mmHg 20%
05:00 +23°C° 0 mm 1 m/S 611 mmHg 17%
06:00 +25°C° 0 mm 1 m/S 613 mmHg 15%
07:00 +28°C° 0 mm 1 m/S 614 mmHg 13%
08:00 +29°C° 0 mm 1 m/S 614 mmHg 12%
09:00 +31°C° 0 mm 1 m/S 614 mmHg 11%
10:00 +32°C° 0 mm 2 m/S 614 mmHg 10%
11:00 +34°C° 0 mm 2 m/S 614 mmHg 9%
12:00 +35°C° 0 mm 2 m/S 614 mmHg 8%
13:00 +36°C° 0 mm 3 m/S 613 mmHg 7%
14:00 +36°C° 0 mm 3 m/S 613 mmHg 7%
15:00 +37°C° 0 mm 4 m/S 613 mmHg 7%
16:00 +37°C° 0 mm 4 m/S 612 mmHg 6%
17:00 +34°C° 0 mm 3 m/S 612 mmHg 8%
18:00 +31°C° 0 mm 3 m/S 611 mmHg 9%
19:00 +29°C° 0 mm 2 m/S 610 mmHg 10%
20:00 +27°C° 0 mm 2 m/S 610 mmHg 12%
21:00 +26°C° 0 mm 1 m/S 610 mmHg 13%
22:00 +25°C° 0 mm 1 m/S 610 mmHg 15%
23:00 +24°C° 0 mm 1 m/S 610 mmHg 17%
Mehr zeigen